Location: Garbet
(42.8837°N, 1.2115°E)
Time: 05:00:12
(UTC+00:00)

Cosmos 1953 Rocket - Pass Details

Date: 20 March 2026
Orbit: 599 x 626 km, 82.5° (Epoch: 15 April)

Event Time Altitude Azimuth Distance (km) Brightness Sun altitude
Rises 04:57:36 0° 357° (N) 2,894 7.1 -12.0°
Reaches altitude 10° 04:59:55 10° 4° (N) 1,989 6.3 -11.5°
Maximum altitude 05:04:10 46° 78° (ENE) 833 4.8 -10.8°
Drops below altitude 10° 05:08:24 10° 152° (SSE) 1,987 6.4 -10.0°
Sets 05:10:42 0° 159° (SSE) 2,891 7.2 -9.6°
